Find MMS 4

NORAD ID: 40485 Int'l Des: 2015-011 Owner: GSFC Country: US operational
HEOELLIPTICALHEO_ELLIPTICAL

Current View

Loading 3D Globe...

About MMS 4

Description loading...

Upcoming Passes

Passes for default location (London). Set your location on the main map for personalized predictions.

Altitude History

Loading altitude history...

Two-Line Element Set

1 40485U 15011D 26149.58337963 -.00000286 00000-0 00000+0 0 9991
2 40485 71.9441 349.0526 8340626 167.0012 200.8757 0.28362711 1385
Epoch: May 29, 2026 • Age: 11 hours

Current Status

Altitude 156071.0 km
Velocity 0.91 km/s
Sub-Earth Point -1.17°S, 91.87°E
Launch Date Mar 13, 2015
Age 11.2 years
Type other

Technical Details

Classification Payload
Mass 1360.00 kg
Dry Mass 1000.00 kg
Total Mass 1360.00 kg
Length 1.20 m
Diameter 3.60 m
Span 112.00 m
Shape Cylinder+antennae
Manufacturer GSFC
Bus Type MMS-SMART
Phase Status Deep Space
Owner/State GSFC/US

Most Searched